Location: Choisy
(48.7685°N, 2.4187°E)
Time: 10:48:02
(UTC+00:00)

ATLAS 3B R/B - Pass Details

Date: 03 December 2023
Orbit: 947 x 1247 km, 63.8° (Epoch: 10 February)

Event Time Altitude Azimuth Distance (km) Brightness Sun altitude
Exits shadow 02:52:50 28° 102° (ESE) 1,963 4.3 -43.6°
Drops below altitude 10° 02:58:17 10° 55° (NE) 3,092 5.7 -42.7°
Sets 03:01:29 0° 45° (NE) 4,101 6.4 -42.2°
